| time (UTC) | temp F | wind direction | speed MPH | gust MPH | rain 1hr in | rain 24hr in | rain mn in | humidity % | barometer mb |
| 20260504110212 | 47 | 109 | 0.0 | 1.0 | 0.00 | 0.00 | 0.00 | 70 | 1015.3 |
| 20260504100130 | 45 | 108 | 0.0 | 1.0 | 0.00 | 0.00 | 0.00 | 77 | 1015.1 |
| 20260504081523 | 44 | 108 | 0.0 | 0.0 | 0.00 | 0.00 | 0.00 | 79 | 1015.3 |
| 20260504081019 | 44 | 108 | 0.0 | 0.0 | 0.00 | 0.00 | 0.00 | 80 | 1015.3 |
| 20260504080515 | 45 | 108 | 1.0 | 1.0 | 0.00 | 0.00 | 0.00 | 78 | 1015.3 |
| 20260504050335 | 40 | 310 | 0.0 | 0.0 | 0.00 | 0.00 | 0.00 | 83 | 1016.1 |
| 20260504045832 | 41 | 310 | 0.0 | 0.0 | 0.00 | 0.00 | 0.00 | 80 | 1016.2 |
| 20260504045331 | 40 | 310 | 0.0 | 0.0 | 0.00 | 0.00 | 0.00 | 81 | 1016.1 |
| 20260504044829 | 41 | 310 | 0.0 | 0.0 | 0.00 | 0.00 | 0.00 | 81 | 1016.3 |
| 20260504044326 | 41 | 310 | 0.0 | 0.0 | 0.00 | 0.00 | 0.00 | 78 | 1016.4 |
| 20260504043824 | 41 | 310 | 0.0 | 0.0 | 0.00 | 0.00 | 0.00 | 81 | 1016.2 |
| 20260504043320 | 40 | 310 | 0.0 | 0.0 | 0.00 | 0.00 | 0.00 | 81 | 1016.3 |
| 20260504042818 | 40 | 310 | 1.0 | 1.0 | 0.00 | 0.00 | 0.00 | 82 | 1016.0 |
| 20260504042314 | 41 | 310 | 0.0 | 0.0 | 0.00 | 0.00 | 0.00 | 81 | 1016.2 |
| 20260504041810 | 41 | 310 | 0.0 | 0.0 | 0.00 | 0.00 | 0.00 | 80 | 1016.1 |
| 20260504041306 | 42 | 310 | 0.0 | 0.0 | 0.00 | 0.00 | 0.00 | 78 | 1016.2 |
| 20260504040803 | 42 | 310 | 0.0 | 0.0 | 0.00 | 0.00 | 0.00 | 78 | 1016.0 |
| 20260504040300 | 43 | 310 | 0.0 | 0.0 | 0.00 | 0.00 | 0.00 | 73 | 1016.1 |
| 20260504035756 | 43 | 310 | 0.0 | 0.0 | 0.00 | 0.00 | 0.00 | 75 | 1016.0 |
| 20260504035254 | 43 | 310 | 0.0 | 0.0 | 0.00 | 0.00 | 0.00 | 76 | 1016.0 |
| 20260504034751 | 43 | 310 | 0.0 | 0.0 | 0.00 | 0.00 | 0.00 | 74 | 1015.8 |
| 20260504034248 | 43 | 310 | 0.0 | 1.0 | 0.00 | 0.00 | 0.00 | 71 | 1015.9 |
| 20260504033745 | 42 | 310 | 0.0 | 0.0 | 0.00 | 0.00 | 0.00 | 75 | 1015.8 |
| 20260504033243 | 42 | 310 | 0.0 | 0.0 | 0.00 | 0.00 | 0.00 | 78 | 1015.9 |
| 20260504032740 | 43 | 310 | 0.0 | 0.0 | 0.00 | 0.00 | 0.00 | 75 | 1015.7 |
| 20260504032237 | 43 | 310 | 0.0 | 0.0 | 0.00 | 0.00 | 0.00 | 74 | 1015.7 |
| 20260504031733 | 44 | 310 | 0.0 | 0.0 | 0.00 | 0.00 | 0.00 | 71 | 1015.8 |
| 20260504031231 | 44 | 310 | 0.0 | 0.0 | 0.00 | 0.00 | 0.00 | 69 | 1015.9 |
| 20260504030726 | 44 | 310 | 0.0 | 0.0 | 0.00 | 0.00 | 0.00 | 68 | 1015.7 |
| 20260504030224 | 45 | 310 | 0.0 | 0.0 | 0.00 | 0.00 | 0.00 | 68 | 1015.8 |
| 20260504025720 | 45 | 310 | 0.0 | 0.0 | 0.00 | 0.00 | 0.00 | 68 | 1015.8 |
| 20260504025217 | 46 | 310 | 0.0 | 0.0 | 0.00 | 0.00 | 0.00 | 67 | 1015.4 |
| 20260504024715 | 47 | 310 | 0.0 | 0.0 | 0.00 | 0.00 | 0.00 | 65 | 1015.6 |
| 20260504024211 | 46 | 310 | 0.0 | 0.0 | 0.00 | 0.00 | 0.00 | 65 | 1015.4 |
| 20260504023708 | 45 | 310 | 0.0 | 0.0 | 0.00 | 0.00 | 0.00 | 66 | 1015.4 |
| 20260504023203 | 46 | 310 | 0.0 | 0.0 | 0.00 | 0.00 | 0.00 | 68 | 1015.6 |
| 20260504022700 | 45 | 310 | 0.0 | 0.0 | 0.00 | 0.00 | 0.00 | 65 | 1015.2 |
| 20260504022156 | 45 | 310 | 0.0 | 0.0 | 0.00 | 0.00 | 0.00 | 65 | 1015.3 |
| 20260504021654 | 47 | 309 | 0.0 | 0.0 | 0.00 | 0.00 | 0.00 | 63 | 1015.4 |
| 20260504021150 | 48 | 309 | 0.0 | 0.0 | 0.00 | 0.00 | 0.00 | 59 | 1015.3 |
| 20260504020647 | 48 | 309 | 0.0 | 0.0 | 0.00 | 0.00 | 0.00 | 60 | 1015.5 |
| 20260504020143 | 48 | 309 | 0.0 | 0.0 | 0.00 | 0.00 | 0.00 | 59 | 1015.4 |
| 20260504015640 | 48 | 309 | 0.0 | 0.0 | 0.00 | 0.00 | 0.00 | 56 | 1015.4 |
| 20260504015137 | 48 | 309 | 0.0 | 0.0 | 0.00 | 0.00 | 0.00 | 55 | 1015.2 |
| 20260504014632 | 47 | 309 | 0.0 | 1.0 | 0.00 | 0.00 | 0.00 | 60 | 1015.4 |
| 20260504014130 | 47 | 310 | 0.0 | 0.0 | 0.00 | 0.00 | 0.00 | 63 | 1015.4 |
| 20260504013627 | 47 | 309 | 1.0 | 2.0 | 0.00 | 0.00 | 0.00 | 59 | 1015.4 |
| 20260504013124 | 49 | 309 | 0.0 | 0.0 | 0.00 | 0.00 | 0.00 | 60 | 1015.2 |
| 20260504012621 | 50 | 309 | 0.0 | 0.0 | 0.00 | 0.00 | 0.00 | 52 | 1015.2 |
| 20260504012120 | 50 | 309 | 0.0 | 0.0 | 0.00 | 0.00 | 0.00 | 54 | 1015.1 |
| 20260504011616 | 50 | 309 | 0.0 | 0.0 | 0.00 | 0.00 | 0.00 | 53 | 1014.9 |
| 20260504011112 | 52 | 309 | 0.0 | 0.0 | 0.00 | 0.00 | 0.00 | 48 | 1015.1 |
| 20260504010608 | 53 | 309 | 0.0 | 1.0 | 0.00 | 0.00 | 0.00 | 47 | 1015.1 |
| 20260504010104 | 52 | 309 | 0.0 | 0.0 | 0.00 | 0.00 | 0.00 | 43 | 1015.2 |
| 20260504005601 | 53 | 309 | 0.0 | 0.0 | 0.00 | 0.00 | 0.00 | 40 | 1015.0 |
| 20260504005058 | 53 | 309 | 0.0 | 0.0 | 0.00 | 0.00 | 0.00 | 41 | 1015.1 |
| 20260504004556 | 53 | 309 | 0.0 | 0.0 | 0.00 | 0.00 | 0.00 | 40 | 1014.9 |
| 20260504004053 | 53 | 309 | 0.0 | 0.0 | 0.00 | 0.00 | 0.00 | 43 | 1015.0 |
| 20260504003549 | 53 | 309 | 0.0 | 0.0 | 0.00 | 0.00 | 0.00 | 44 | 1014.9 |
| 20260504003046 | 54 | 309 | 0.0 | 2.0 | 0.00 | 0.00 | 0.00 | 43 | 1014.9 |
| 20260504002542 | 56 | 309 | 0.0 | 0.0 | 0.00 | 0.00 | 0.00 | 40 | 1014.8 |
| 20260504002040 | 57 | 309 | 1.0 | 2.0 | 0.00 | 0.00 | 0.00 | 35 | 1014.8 |
| 20260504001538 | 57 | 309 | 1.0 | 3.0 | 0.00 | 0.00 | 0.00 | 34 | 1014.8 |
| 20260504001034 | 57 | 309 | 1.0 | 2.0 | 0.00 | 0.00 | 0.00 | 34 | 1014.6 |
| 20260504000531 | 57 | 309 | 0.0 | 3.0 | 0.00 | 0.00 | 0.00 | 34 | 1014.9 |
| 20260504000028 | 58 | 309 | 0.0 | 0.0 | 0.00 | 0.00 | 0.00 | 36 | 1014.5 |
| 20260503235526 | 58 | 309 | 1.0 | 2.0 | 0.00 | 0.00 | 0.00 | 35 | 1014.7 |
| 20260503235023 | 58 | 309 | 2.0 | 3.0 | 0.00 | 0.00 | 0.00 | 35 | 1014.6 |
| 20260503234521 | 58 | 306 | 4.0 | 4.0 | 0.00 | 0.00 | 0.00 | 36 | 1014.6 |
| 20260503234019 | 59 | 304 | 4.0 | 7.0 | 0.00 | 0.00 | 0.00 | 36 | 1014.5 |
| 20260503233515 | 59 | 313 | 5.0 | 7.0 | 0.00 | 0.00 | 0.00 | 34 | 1014.5 |
| 20260503233011 | 60 | 318 | 7.0 | 9.0 | 0.00 | 0.00 | 0.00 | 33 | 1014.4 |
| 20260503232508 | 60 | 308 | 8.0 | 11.0 | 0.00 | 0.00 | 0.00 | 32 | 1014.4 |
| 20260503232006 | 60 | 295 | 9.0 | 11.0 | 0.00 | 0.00 | 0.00 | 33 | 1014.4 |
| 20260503231503 | 61 | 300 | 9.0 | 11.0 | 0.00 | 0.00 | 0.00 | 33 | 1014.3 |
| 20260503231000 | 61 | 331 | 8.0 | 11.0 | 0.00 | 0.00 | 0.00 | 33 | 1014.2 |
| 20260503230456 | 61 | 283 | 10.0 | 11.0 | 0.00 | 0.00 | 0.00 | 32 | 1014.4 |
| 20260503225954 | 61 | 326 | 9.0 | 14.0 | 0.00 | 0.00 | 0.00 | 35 | 1014.3 |
| 20260503225450 | 61 | 321 | 8.0 | 9.0 | 0.00 | 0.00 | 0.00 | 30 | 1014.2 |
| 20260503224946 | 62 | 317 | 8.0 | 9.0 | 0.00 | 0.00 | 0.00 | 34 | 1014.3 |
| 20260503224443 | 62 | 348 | 7.0 | 9.0 | 0.00 | 0.00 | 0.00 | 30 | 1014.3 |
| 20260503223941 | 62 | 278 | 11.0 | 14.0 | 0.00 | 0.00 | 0.00 | 31 | 1014.2 |
| 20260503223439 | 62 | 294 | 14.0 | 17.0 | 0.00 | 0.00 | 0.00 | 32 | 1014.2 |
| 20260503222934 | 62 | 305 | 9.0 | 11.0 | 0.00 | 0.00 | 0.00 | 31 | 1014.3 |
| 20260503222433 | 62 | 308 | 8.0 | 11.0 | 0.00 | 0.00 | 0.00 | 33 | 1014.3 |
| 20260503221931 | 62 | 310 | 14.0 | 16.0 | 0.00 | 0.00 | 0.00 | 30 | 1014.4 |
| 20260503221429 | 62 | 306 | 17.0 | 18.0 | 0.00 | 0.00 | 0.00 | 30 | 1014.3 |
| 20260503220925 | 62 | 296 | 7.0 | 10.0 | 0.00 | 0.00 | 0.00 | 31 | 1014.5 |
| 20260503220421 | 62 | 288 | 9.0 | 14.0 | 0.00 | 0.00 | 0.00 | 33 | 1014.4 |
| 20260503215919 | 62 | 305 | 7.0 | 9.0 | 0.00 | 0.00 | 0.00 | 33 | 1014.3 |
| 20260503215415 | 62 | 312 | 7.0 | 8.0 | 0.00 | 0.00 | 0.00 | 33 | 1014.4 |
| 20260503214913 | 62 | 313 | 10.0 | 10.0 | 0.00 | 0.00 | 0.00 | 33 | 1014.3 |
| 20260503214410 | 63 | 292 | 10.0 | 18.0 | 0.00 | 0.00 | 0.00 | 31 | 1014.5 |
| 20260503213908 | 63 | 298 | 7.0 | 8.0 | 0.00 | 0.00 | 0.00 | 31 | 1014.4 |
| 20260503213406 | 63 | 318 | 4.0 | 10.0 | 0.00 | 0.00 | 0.00 | 30 | 1014.5 |
| 20260503212902 | 63 | 292 | 9.0 | 10.0 | 0.00 | 0.00 | 0.00 | 32 | 1014.4 |
| 20260503212400 | 62 | 322 | 14.0 | 15.0 | 0.00 | 0.00 | 0.00 | 32 | 1014.4 |
| 20260503211857 | 63 | 305 | 10.0 | 11.0 | 0.00 | 0.00 | 0.00 | 31 | 1014.6 |
| 20260503211353 | 62 | 303 | 8.0 | 10.0 | 0.00 | 0.00 | 0.00 | 31 | 1014.4 |
| 20260503210848 | 61 | 296 | 6.0 | 7.0 | 0.00 | 0.00 | 0.00 | 30 | 1014.3 |
| 20260503210346 | 60 | 286 | 6.0 | 10.0 | 0.00 | 0.00 | 0.00 | 30 | 1014.5 |
| 20260503205841 | 62 | 289 | 10.0 | 15.0 | 0.00 | 0.00 | 0.00 | 32 | 1014.4 |
| 20260503205338 | 63 | 312 | 6.0 | 8.0 | 0.00 | 0.00 | 0.00 | 30 | 1014.5 |
| 20260503204834 | 62 | 308 | 7.0 | 11.0 | 0.00 | 0.00 | 0.00 | 33 | 1014.5 |
| 20260503204332 | 63 | 304 | 8.0 | 9.0 | 0.00 | 0.00 | 0.00 | 31 | 1014.6 |
| 20260503203829 | 61 | 309 | 3.0 | 6.0 | 0.00 | 0.00 | 0.00 | 28 | 1014.6 |
| 20260503203326 | 62 | 326 | 7.0 | 11.0 | 0.00 | 0.00 | 0.00 | 29 | 1014.6 |
| 20260503202823 | 62 | 311 | 14.0 | 19.0 | 0.00 | 0.00 | 0.00 | 30 | 1014.5 |
| 20260503202321 | 64 | 304 | 9.0 | 16.0 | 0.00 | 0.00 | 0.00 | 30 | 1014.6 |
| 20260503201819 | 62 | 298 | 6.0 | 14.0 | 0.00 | 0.00 | 0.00 | 29 | 1014.6 |
| 20260503201316 | 63 | 310 | 9.0 | 13.0 | 0.00 | 0.00 | 0.00 | 30 | 1014.7 |
| 20260503200813 | 62 | 299 | 9.0 | 10.0 | 0.00 | 0.00 | 0.00 | 31 | 1014.8 |
| 20260503200309 | 62 | 309 | 8.0 | 10.0 | 0.00 | 0.00 | 0.00 | 32 | 1014.9 |
| 20260503195807 | 60 | 307 | 8.0 | 11.0 | 0.00 | 0.00 | 0.00 | 33 | 1015.1 |
| 20260503195304 | 61 | 311 | 6.0 | 8.0 | 0.00 | 0.00 | 0.00 | 35 | 1015.1 |
| 20260503194800 | 62 | 321 | 11.0 | 11.0 | 0.00 | 0.00 | 0.00 | 32 | 1015.3 |
| 20260503194256 | 62 | 330 | 7.0 | 8.0 | 0.00 | 0.00 | 0.00 | 30 | 1015.2 |
| 20260503193752 | 62 | 305 | 9.0 | 10.0 | 0.00 | 0.00 | 0.00 | 29 | 1015.3 |
| 20260503193249 | 61 | 340 | 8.0 | 14.0 | 0.00 | 0.00 | 0.00 | 33 | 1015.4 |
| 20260503192744 | 61 | 326 | 14.0 | 16.0 | 0.00 | 0.00 | 0.00 | 30 | 1015.5 |
| 20260503192239 | 61 | 314 | 10.0 | 16.0 | 0.00 | 0.00 | 0.00 | 33 | 1015.6 |
| 20260503191737 | 61 | 296 | 5.0 | 7.0 | 0.00 | 0.00 | 0.00 | 32 | 1015.6 |
| 20260503191234 | 60 | 317 | 8.0 | 15.0 | 0.00 | 0.00 | 0.00 | 32 | 1015.7 |
| 20260503190731 | 60 | 315 | 10.0 | 13.0 | 0.00 | 0.00 | 0.00 | 31 | 1015.6 |
| 20260503190227 | 60 | 318 | 6.0 | 13.0 | 0.00 | 0.00 | 0.00 | 31 | 1015.8 |
| 20260503185725 | 59 | 349 | 8.0 | 13.0 | 0.00 | 0.00 | 0.00 | 29 | 1015.8 |
| 20260503185220 | 61 | 296 | 14.0 | 16.0 | 0.00 | 0.00 | 0.00 | 34 | 1015.8 |
| 20260503184715 | 60 | 292 | 8.0 | 11.0 | 0.00 | 0.00 | 0.00 | 35 | 1016.0 |
| 20260503184211 | 59 | 317 | 7.0 | 10.0 | 0.00 | 0.00 | 0.00 | 29 | 1016.0 |
| 20260503183708 | 60 | 297 | 7.0 | 14.0 | 0.00 | 0.00 | 0.00 | 32 | 1016.1 |
| 20260503183205 | 60 | 313 | 11.0 | 18.0 | 0.00 | 0.00 | 0.00 | 34 | 1016.0 |
| 20260503182704 | 60 | 300 | 14.0 | 22.0 | 0.00 | 0.00 | 0.00 | 30 | 1016.0 |
| 20260503182202 | 59 | 280 | 7.0 | 10.0 | 0.00 | 0.00 | 0.00 | 34 | 1016.2 |
| 20260503181658 | 58 | 338 | 17.0 | 21.0 | 0.00 | 0.00 | 0.00 | 33 | 1016.1 |
| 20260503181155 | 59 | 298 | 5.0 | 18.0 | 0.00 | 0.00 | 0.00 | 31 | 1016.3 |
| 20260503180651 | 59 | 320 | 11.0 | 13.0 | 0.00 | 0.00 | 0.00 | 36 | 1016.2 |
| 20260503180150 | 59 | 318 | 9.0 | 19.0 | 0.00 | 0.00 | 0.00 | 34 | 1016.3 |
| 20260503175646 | 58 | 336 | 14.0 | 17.0 | 0.00 | 0.00 | 0.00 | 35 | 1016.6 |
| 20260503175144 | 58 | 321 | 13.0 | 16.0 | 0.00 | 0.00 | 0.00 | 33 | 1016.4 |
| 20260503174640 | 59 | 312 | 6.0 | 14.0 | 0.00 | 0.00 | 0.00 | 38 | 1016.4 |
| 20260503174137 | 58 | 309 | 6.0 | 9.0 | 0.00 | 0.00 | 0.00 | 34 | 1016.6 |
| 20260503173632 | 59 | 356 | 10.0 | 14.0 | 0.00 | 0.00 | 0.00 | 33 | 1016.8 |
| 20260503173129 | 57 | 319 | 9.0 | 11.0 | 0.00 | 0.00 | 0.00 | 39 | 1016.7 |
| 20260503172626 | 57 | 332 | 9.0 | 17.0 | 0.00 | 0.00 | 0.00 | 38 | 1016.8 |
| 20260503172124 | 57 | 325 | 12.0 | 16.0 | 0.00 | 0.00 | 0.00 | 39 | 1016.8 |
| 20260503171620 | 56 | 304 | 11.0 | 16.0 | 0.00 | 0.00 | 0.00 | 35 | 1016.7 |
| 20260503171117 | 57 | 313 | 14.0 | 21.0 | 0.00 | 0.00 | 0.00 | 39 | 1017.0 |
| 20260503170614 | 56 | 303 | 7.0 | 15.0 | 0.00 | 0.00 | 0.00 | 39 | 1017.1 |
| 20260503170110 | 56 | 303 | 16.0 | 18.0 | 0.00 | 0.00 | 0.00 | 38 | 1017.0 |
| 20260503151006 | 52 | 320 | 5.0 | 9.0 | 0.00 | 0.00 | 0.00 | 47 | 1018.2 |
| 20260503150502 | 52 | 320 | 13.0 | 14.0 | 0.00 | 0.00 | 0.00 | 46 | 1018.1 |
| 20260503131355 | 46 | 322 | 9.0 | 13.0 | 0.00 | 0.00 | 0.00 | 55 | 1018.3 |
| 20260503130853 | 47 | 312 | 10.0 | 11.0 | 0.00 | 0.00 | 0.00 | 56 | 1018.3 |
| 20260503130350 | 45 | 313 | 8.0 | 9.0 | 0.00 | 0.00 | 0.00 | 59 | 1018.5 |
| 20260503110749 | 39 | 313 | 9.0 | 9.0 | 0.00 | 0.00 | 0.00 | 68 | 1017.4 |